Aérodrome :
LOGIN :

S'inscrire | Disclaimer

   EN    FR    IT 

 










Légende :    VFR   VFR Marginal   IFR   IFR Intensif   IFR Très Intensif
Visi : 
Plafond : 
>= 8 km
>= 3000ft
5 à 8 km
1000 à 3000 ft
1500m à 5 km
500 à 1000 ft
800 à 1500m
200 à 500 ft
< 800m
< 200 ft
Symboles :   Orages  Brouillard  Fortes neiges  Fortes précipitations  Vent > 20 kt
SIGMETs :   Divers  Orages  Givrage  Turbulence  Onde Orograph.  Cendres Volcan.







- Altitude de l'aérodrome : 299 ft
- Code IATA : EDM
- Voir les cartes d'approche


LFRI - La Roche Sur Yon - Les Ajoncs

DERNIER METAR :
  • 152130Z AUTO VRB02KT 9999 OVC010 14/13 Q1012

METARs EXPIRÉS :
  • 152100Z AUTO VRB02KT 9999 BKN011 OVC016 14/13 Q1012 NOSIG
  • 152030Z AUTO VRB02KT 9999 FEW010 BKN018 OVC038 14/13 Q1012 TEMPO BKN012
  • 152000Z AUTO 32003KT 9999 BKN020 BKN027 BKN039 14/13 Q1011 TEMPO BKN012
  • 151930Z AUTO 31003KT 9999 BKN019 BKN024 BKN035 14/13 Q1011 TEMPO BKN012
  • 151900Z AUTO 31005KT 9999 BKN020 OVC025 14/12 Q1010 NOSIG

TAF TAF LFRI
Valide du 15 à 18h jusqu'au 16 à 18h UTC


151700Z 1518/1618 VRB04KT 9999 BKN030
TEMPO 1521/1609 BKN012
PROB30
TEMPO 1600/1607 BKN004
Pas de NOTAMs connus pour ce terrain.



MET'MAP, la Météo Aéronautique d'un coup d'oeil ! - Copyright ORBIFLY Décembre 2007 - Disclaimer

ORBIFLY MET'MAP TEAM :

Programmation & Développement : Alexandra Zaïnal
Conception & Développement : Baudouin d'Aumeries
Co-Programmation & Développement : Marc-Olivier Méhu
Soutien technique & logistique : Manuel Goepfert

Contact : metmap@orbifly.com




SOURCES & CREDITS :

   NOAA